Weather reports worldwide

Advertisment
Kleine Brogel, Belgium (6479): temperature & dewpoint: 06.11.2019 17:00:00 - 12.11.2019 17:00:00 (CET)Kleine Brogel, Belgium (6479): wind speed & gusts: 06.11.2019 17:00:00 - 12.11.2019 17:00:00 (CET)Kleine Brogel, Belgium (6479): wind direction: 06.11.2019 17:00:00 - 12.11.2019 17:00:00 (CET)Kleine Brogel, Belgium (6479): reduced air pressure: 06.11.2019 17:00:00 - 12.11.2019 17:00:00 (CET)Kleine Brogel, Belgium (6479): visibility: 06.11.2019 17:00:00 - 12.11.2019 17:00:00 (CET)
Date & Time tt [°C] td [°C] ff [km/h] ff [kn] fx [km/h] fx [kn] dd ppp [hPa] vv [km]
12.11.2019 17:00:00 5,4 2,4 11 6 25 14 SSW 1001,1 20
12.11.2019 16:00:00 6,0 2,3 18 10 - - SSW 1000,6 20
12.11.2019 15:00:00 6,6 2,6 18 10 32 18 SSW 1000,7 20
12.11.2019 14:00:00 6,5 3,0 18 10 32 18 SW 1000,7 20
12.11.2019 13:00:00 5,7 3,0 22 12 - - SW 1001,0 20
12.11.2019 12:00:00 5,0 2,7 22 12 32 18 SW 1001,2 20
12.11.2019 11:00:00 4,9 2,9 22 12 36 19 SSW 1001,2 12
12.11.2019 10:00:00 4,3 3,0 14 8 - - SSW 1001,2 12
12.11.2019 09:00:00 5,2 2,8 18 10 32 18 SSW 1001,2 20
12.11.2019 08:00:00 5,0 2,9 14 8 32 18 SSW 1001,3 18
12.11.2019 07:00:00 5,0 2,6 21 11 - - SSW 1001,7 10
12.11.2019 06:00:00 4,7 2,7 18 10 32 18 SSW 1002,0 20
12.11.2019 05:00:00 4,3 2,7 18 10 32 18 SSW 1002,0 20
12.11.2019 04:00:00 3,9 2,6 14 8 - - SSW 1002,5 20
12.11.2019 03:00:00 4,1 2,7 18 10 29 16 SSW 1002,8 20
12.11.2019 02:00:00 4,0 2,7 18 10 29 16 SSW 1002,8 20
12.11.2019 01:00:00 4,0 2,9 18 10 - - SSW 1003,1 20
12.11.2019 00:00:00 4,2 3,3 14 8 22 12 SSW 1003,0 20
11.11.2019 23:00:00 4,3 3,8 14 8 22 12 SSW 1003,0 19
11.11.2019 22:00:00 5,0 4,6 7 4 - - SSW 1003,0 18
11.11.2019 21:00:00 5,0 4,1 11 6 32 18 SW 1002,8 20
11.11.2019 20:00:00 5,5 4,4 18 10 29 16 SW 1002,5 20
11.11.2019 19:00:00 5,5 4,5 14 8 - - SW 1002,2 20
11.11.2019 18:00:00 5,6 4,5 14 8 29 16 SSW 1001,7 20
11.11.2019 17:00:00 5,5 4,4 21 11 36 19 SSW 1001,7 10
11.11.2019 16:00:00 5,6 4,6 22 12 - - SSW 1001,7 16
11.11.2019 15:00:00 6,5 4,6 25 14 43 23 SSW 1001,7 12
11.11.2019 14:00:00 7,9 3,9 18 10 40 21 SSW 1002,0 19
11.11.2019 13:00:00 8,0 3,3 22 12 - - SSW 1003,0 20
11.11.2019 12:00:00 8,1 3,4 18 10 43 23 SSW 1004,2 20
11.11.2019 11:00:00 7,8 3,5 18 10 36 19 S 1005,1 20
11.11.2019 10:00:00 6,7 3,0 14 8 - - S 1005,7 18
11.11.2019 09:00:00 6,1 3,1 14 8 22 12 S 1007,2 20
11.11.2019 08:00:00 5,9 3,1 11 6 25 14 S 1008,0 20
11.11.2019 07:00:00 5,5 3,4 7 4 - - S 1008,7 20
11.11.2019 06:00:00 5,0 3,5 4 2 11 6 N 1009,6 20
11.11.2019 05:00:00 3,7 2,8 4 2 11 6 N 1011,1 19
11.11.2019 04:00:00 2,5 1,8 4 2 - - N 1012,2 17
11.11.2019 03:00:00 1,3 0,8 4 2 14 8 N 1012,7 14
11.11.2019 02:00:00 1,6 0,9 7 4 14 8 SSE 1013,3 13
11.11.2019 01:00:00 0,9 0,5 4 2 - - N 1014,2 10
11.11.2019 00:00:00 2,0 1,5 4 2 14 8 N 1014,2 14
10.11.2019 23:00:00 0,7 0,6 7 4 11 6 S 1014,2 14
10.11.2019 22:00:00 -0,4 -0,4 2 1 - - - 1014,5 4,5
10.11.2019 21:00:00 0,3 0,1 4 2 4 2 - 1014,7 5
10.11.2019 20:00:00 1,0 0,8 2 1 4 2 - 1015,5 5
10.11.2019 19:00:00 1,6 1,3 2 1 - - - 1015,5 0,5
10.11.2019 18:00:00 3,2 2,4 0 0 0 0 N 1015,3 16
10.11.2019 17:00:00 5,2 2,6 0 0 4 2 N 1014,7 20
10.11.2019 16:00:00 8,6 2,5 4 2 - - N 1014,2 20
10.11.2019 15:00:00 9,3 2,8 4 2 11 6 N 1013,5 20
10.11.2019 14:00:00 9,0 3,4 7 4 11 6 N 1013,3 20
10.11.2019 13:00:00 8,3 3,1 4 2 - - N 1013,2 20
10.11.2019 12:00:00 6,7 2,5 4 2 7 4 N 1013,2 20
10.11.2019 11:00:00 4,8 2,0 4 2 7 4 N 1013,2 20
10.11.2019 10:00:00 2,6 0,9 4 2 - - N 1012,7 13
10.11.2019 09:00:00 0,0 -0,3 4 2 4 2 N 1012,1 7
10.11.2019 08:00:00 -0,7 -0,8 4 2 4 2 - 1011,5 3,4
10.11.2019 07:00:00 -1,3 -1,4 4 2 - - N 1010,6 0,8
10.11.2019 06:00:00 -0,7 -0,7 4 2 4 2 N 1010,0 5
10.11.2019 05:00:00 -1,0 -1,0 2 1 4 2 - 1009,2 4,7
10.11.2019 04:00:00 -1,4 -1,6 4 2 - - N 1009,0 2,9
10.11.2019 03:00:00 -0,4 -0,5 2 1 7 4 - 1008,7 6
10.11.2019 02:00:00 0,8 0,5 4 2 11 6 N 1008,6 10
10.11.2019 01:00:00 0,9 0,5 4 2 - - N 1008,2 11
10.11.2019 00:00:00 1,1 0,5 4 2 7 4 N 1008,2 12
09.11.2019 23:00:00 1,3 0,5 4 2 7 4 N 1007,8 12
09.11.2019 22:00:00 2,0 1,3 4 2 - - N 1008,0 14
09.11.2019 21:00:00 2,4 1,4 4 2 11 6 N 1008,1 17
09.11.2019 20:00:00 2,4 1,4 4 2 11 6 N 1008,0 19
09.11.2019 19:00:00 3,0 1,8 4 2 - - N 1008,1 19
09.11.2019 18:00:00 4,1 2,3 4 2 11 6 N 1007,8 20
09.11.2019 17:00:00 5,5 3,0 4 2 22 12 N 1007,8 20
09.11.2019 16:00:00 7,1 3,2 14 8 - - SSW 1007,8 20
09.11.2019 15:00:00 7,9 3,4 14 8 36 19 SW 1007,8 20
09.11.2019 14:00:00 8,3 3,7 18 10 40 21 SSW 1008,0 10
09.11.2019 13:00:00 8,1 4,0 22 12 - - SW 1008,1 20
09.11.2019 12:00:00 7,2 4,8 22 12 36 19 SW 1008,6 19
09.11.2019 11:00:00 7,1 5,4 18 10 29 16 SW 1008,8 15
09.11.2019 10:00:00 6,0 5,2 18 10 - - SW 1008,8 9
09.11.2019 09:00:00 5,6 5,1 14 8 25 14 SW 1008,7 6
09.11.2019 08:00:00 5,4 4,8 14 8 25 14 SW 1008,8 7
09.11.2019 07:00:00 5,4 5,0 14 8 - - SW 1008,7 6
09.11.2019 06:00:00 5,0 4,6 11 6 25 14 SSW 1008,5 4,6
09.11.2019 05:00:00 4,9 4,5 14 8 25 14 SW 1008,3 4,0
09.11.2019 04:00:00 4,4 4,1 18 10 - - SW 1008,7 4,2
09.11.2019 03:00:00 4,0 3,6 11 6 22 12 SW 1008,7 5
09.11.2019 02:00:00 3,5 3,3 8 4 11 6 SSW 1008,7 6
09.11.2019 01:00:00 3,0 2,8 7 4 - - SSW 1008,7 5
09.11.2019 00:00:00 3,4 3,2 4 2 11 6 N 1009,0 5
08.11.2019 23:00:00 3,6 3,3 5 3 7 4 SW 1009,1 4,9
08.11.2019 22:00:00 3,4 3,2 5 3 - - SW 1009,0 3,2
08.11.2019 21:00:00 1,8 1,8 4 2 4 2 N 1008,8 1,4
08.11.2019 20:00:00 2,8 2,8 0 0 4 2 N 1008,3 0,7
08.11.2019 19:00:00 3,5 3,4 4 2 - - - 1008,0 3,6
08.11.2019 18:00:00 4,8 4,3 4 2 4 2 N 1007,7 20
08.11.2019 17:00:00 6,9 5,1 4 2 7 4 N 1007,5 20
08.11.2019 16:00:00 8,8 4,4 4 2 - - N 1006,8 20
08.11.2019 15:00:00 9,8 4,0 4 2 11 6 N 1006,2 20
08.11.2019 14:00:00 9,6 4,5 4 2 11 6 N 1006,1 20
08.11.2019 13:00:00 9,2 4,8 4 2 - - N 1006,2 18
08.11.2019 12:00:00 8,6 4,9 4 2 14 8 N 1006,3 20
08.11.2019 11:00:00 7,0 4,0 7 4 11 6 SSE 1006,7 20
08.11.2019 10:00:00 5,5 3,3 4 2 - - N 1006,2 20
08.11.2019 09:00:00 3,5 2,1 4 2 7 4 N 1006,0 18
08.11.2019 08:00:00 2,0 1,5 4 2 7 4 N 1005,6 15
08.11.2019 07:00:00 2,7 2,0 2 1 - - - 1005,0 10
08.11.2019 06:00:00 2,8 1,7 4 2 11 6 N 1004,6 20
08.11.2019 05:00:00 3,0 1,9 4 2 14 8 N 1004,2 20
08.11.2019 04:00:00 2,8 1,9 4 2 - - N 1004,0 20
08.11.2019 03:00:00 2,4 1,9 4 2 7 4 N 1003,2 17
08.11.2019 02:00:00 3,2 2,6 4 2 7 4 N 1003,2 20
08.11.2019 01:00:00 3,7 2,4 4 2 - - N 1003,1 20
08.11.2019 00:00:00 4,1 2,5 4 2 14 8 N 1003,0 20
07.11.2019 23:00:00 4,9 3,4 7 4 11 6 S 1002,7 20
07.11.2019 22:00:00 4,4 3,5 4 2 - - - 1002,2 20
07.11.2019 21:00:00 4,3 3,0 7 4 11 6 N 1001,7 20
07.11.2019 20:00:00 5,4 3,7 7 4 22 12 S 1001,0 20
07.11.2019 19:00:00 6,5 3,9 14 8 - - SSW 1000,2 20
07.11.2019 18:00:00 7,1 4,9 14 8 29 16 SSW 999,4 15
07.11.2019 17:00:00 7,6 5,3 18 10 40 21 SSW 998,2 20
07.11.2019 16:00:00 9,3 5,3 22 12 - - SW 997,0 15
07.11.2019 15:00:00 9,7 6,5 18 10 36 19 SW 996,0 15
07.11.2019 14:00:00 9,0 7,9 13 7 29 16 S 995,1 10
07.11.2019 13:00:00 9,1 8,0 7 4 - - S 994,6 15
07.11.2019 12:00:00 8,9 8,1 7 4 22 12 ESE 994,8 10
07.11.2019 11:00:00 8,5 7,6 7 4 18 10 ESE 995,2 5
07.11.2019 10:00:00 8,6 7,2 8 4 - - E 995,5 10
07.11.2019 09:00:00 8,1 7,3 7 4 14 8 N 996,1 15
07.11.2019 08:00:00 7,8 7,0 4 2 7 4 N 996,5 15
07.11.2019 07:00:00 7,5 7,1 4 2 - - - 997,2 10
07.11.2019 06:00:00 7,6 7,1 4 2 7 4 N 997,8 10
07.11.2019 05:00:00 7,6 7,1 4 2 11 6 N 998,5 10
07.11.2019 04:00:00 7,6 7,2 4 2 - - N 999,2 6
07.11.2019 03:00:00 7,1 6,9 4 2 7 4 N 1000,0 5
07.11.2019 02:00:00 6,9 6,7 2 1 7 4 - 1000,8 4,8
07.11.2019 01:00:00 6,9 6,6 4 2 - - N 1001,2 6
07.11.2019 00:00:00 7,4 7,1 4 2 7 4 N 1001,8 7
06.11.2019 23:00:00 7,8 7,5 4 2 7 4 N 1002,3 7
06.11.2019 22:00:00 8,1 7,7 4 2 - - N 1003,1 6
06.11.2019 21:00:00 7,5 7,1 4 2 7 4 N 1003,2 11
06.11.2019 20:00:00 7,8 7,1 4 2 7 4 N 1003,5 15
06.11.2019 19:00:00 8,0 7,0 4 2 - - N 1003,6 20
06.11.2019 18:00:00 8,1 7,4 4 2 4 2 N 1003,7 20
06.11.2019 17:00:00 8,5 7,1 4 2 7 4 N 1003,6 20

tt = temperature
td = dewpoint
ff = wind speed
fx = gusts
dd = wind direction
ppp = reduced air pressure
vv = visibility

Next stations